Kimball, NE

3:37 AM MDT on July 25, 2017 (GMT -0600)
Kimball Municipal-Arraj

Weather History for KIBM - November, 2013

Change the Weather History Date:

Saturday, November 16, 2013

  Actual Average (KSNY) Record (KSNY)
Temperature  
Mean Temperature 38 °F -  
Max Temperature 50 °F 51 °F 74 °F (1999)
Min Temperature 27 °F 22 °F -4 °F (1955)
Degree Days  
Heating Degree Days 26    
Moisture  
Dew Point 24 °F    
Average Humidity 52    
Maximum Humidity 80    
Minimum Humidity 32    
Precipitation  
Precipitation 0.00 in - - ()
Sea Level Pressure  
Sea Level Pressure 29.40 in    
Wind  
Wind Speed 9 mph (West)    
Max Wind Speed 20 mph    
Max Gust Speed 26 mph    
Visibility 10 miles    
Events      
Averages and records for this station are not official NWS values.
T = Trace of Precipitation, MM = Missing Value Source: NWS Daily Summary

Daily Weather History Graph

Daily Weather History Graph

Search for Another Location

Airport or City:

Trip Planner

Search our weather history database for the weather conditions in past years. The results will help you decide how hot, cold, wet, or windy it might be!

Date:

Astronomy

Nov. 16, 2013 Rise Set
Actual Time 7:44 AM CST 5:34 PM CST
Civil Twilight 7:14 AM CST 6:04 PM CST
Nautical Twilight 6:41 AM CST 6:37 PM CST
Astronomical Twilight 6:08 AM CST 7:10 PM CST
Moon 5:11 PM CST (11/16) 6:42 AM CST (11/16)
Length of Visible Light 10h 49m
Length of Day
9h 50m
Waxing Gibbous, 99% of the Moon is Illuminated
Nov 16
Waxing Gibbous
Nov 17
Full
Nov 25
Last Quarter
Dec 2
New
Dec 9
First Quarter

Hourly Weather History & Observations

Time (CST) Temp. Windchill Dew Point Humidity Pressure Visibility Wind Dir Wind Speed Gust Speed Precip Events Conditions
12:15 AM 41.0 °F 34.3 °F 28.8 °F 62% 29.47 in 10.0 mi West 11.5 mph - N/A   Clear
12:35 AM 39.2 °F 32.5 °F 29.1 °F 67% 29.46 in 10.0 mi West 10.4 mph - N/A   Clear
12:55 AM 37.4 °F 32.1 °F 28.4 °F 70% 29.46 in 10.0 mi West 6.9 mph - N/A   Clear
1:15 AM 35.4 °F 29.7 °F 28.0 °F 75% 29.45 in 10.0 mi West 6.9 mph - N/A   Clear
1:35 AM 35.2 °F 28.1 °F 28.2 °F 76% 29.45 in 10.0 mi WSW 9.2 mph - N/A   Scattered Clouds
1:55 AM 33.8 °F 27.0 °F 27.3 °F 77% 29.44 in 10.0 mi WSW 8.1 mph - N/A   Scattered Clouds
2:15 AM 34.5 °F 27.3 °F 27.5 °F 76% 29.43 in 10.0 mi West 9.2 mph - N/A   Scattered Clouds
2:35 AM 37.8 °F 30.7 °F 27.1 °F 66% 29.42 in 10.0 mi West 10.4 mph - N/A   Clear
2:55 AM 34.9 °F 28.3 °F 27.1 °F 73% 29.42 in 10.0 mi NW 8.1 mph - N/A   Clear
3:15 AM 32.0 °F 24.8 °F 26.6 °F 80% 29.41 in 10.0 mi WNW 8.1 mph - N/A   Clear
3:35 AM 32.5 °F 24.8 °F 26.4 °F 78% 29.41 in 10.0 mi West 9.2 mph - N/A   Clear
3:55 AM 31.5 °F 23.5 °F 25.5 °F 79% 29.40 in 10.0 mi West 9.2 mph - N/A   Clear
4:15 AM 33.3 °F 21.8 °F 25.3 °F 73% 29.38 in 10.0 mi WNW 19.6 mph 26.5 mph N/A   Clear
4:35 AM 37.6 °F 27.7 °F 24.6 °F 60% 29.39 in 10.0 mi WNW 18.4 mph - N/A   Clear
4:55 AM 37.4 °F 28.5 °F 23.9 °F 58% 29.39 in 10.0 mi WNW 15.0 mph - N/A   Clear
5:15 AM 36.3 °F 26.8 °F 24.1 °F 61% 29.39 in 10.0 mi WNW 16.1 mph 20.7 mph N/A   Clear
5:35 AM 37.4 °F 27.8 °F 23.9 °F 58% 29.38 in 10.0 mi WNW 17.3 mph 21.9 mph N/A   Clear
5:55 AM 36.1 °F 26.9 °F 23.5 °F 60% 29.39 in 10.0 mi West 15.0 mph - N/A   Clear
6:15 AM 36.1 °F 27.7 °F 23.4 °F 60% 29.39 in 10.0 mi WNW 12.7 mph - N/A   Clear
6:35 AM 36.0 °F 28.0 °F 23.0 °F 59% 29.38 in 10.0 mi WNW 11.5 mph - N/A   Clear
6:55 AM 32.0 °F 24.8 °F 23.0 °F 69% 29.39 in 10.0 mi NW 8.1 mph - N/A   Clear
7:15 AM 30.4 °F 24.5 °F 23.0 °F 74% 29.38 in 10.0 mi NW 5.8 mph - N/A   Clear
7:35 AM 27.7 °F 20.4 °F 21.6 °F 78% 29.39 in 10.0 mi NW 6.9 mph - N/A   Clear
7:55 AM 29.5 °F 22.5 °F 22.5 °F 75% 29.38 in 10.0 mi NW 6.9 mph - N/A   Clear
8:15 AM 34.0 °F 29.8 °F 23.0 °F 64% 29.39 in 10.0 mi NW 4.6 mph - N/A   Clear
8:35 AM 32.0 °F - 23.7 °F 71% 29.39 in 10.0 mi Calm Calm - N/A   Clear
8:55 AM 34.3 °F - 24.8 °F 68% 29.38 in 10.0 mi Calm Calm - N/A   Clear
9:15 AM 36.9 °F 33.1 °F 24.6 °F 61% 29.39 in 10.0 mi WSW 4.6 mph - N/A   Clear
9:35 AM 40.5 °F 35.8 °F 24.3 °F 52% 29.38 in 10.0 mi WNW 6.9 mph - N/A   Clear
9:55 AM 44.6 °F 39.7 °F 23.4 °F 43% 29.38 in 10.0 mi WNW 9.2 mph - N/A   Clear
10:15 AM 43.5 °F 39.4 °F 23.4 °F 45% 29.38 in 10.0 mi WNW 6.9 mph - N/A   Clear
10:35 AM 47.1 °F - 22.8 °F 38% 29.38 in 10.0 mi West 10.4 mph - N/A   Clear
10:55 AM 47.1 °F - 18.7 °F 32% 29.39 in 10.0 mi WSW 11.5 mph - N/A   Scattered Clouds
11:15 AM 45.5 °F 41.8 °F 21.7 °F 39% 29.38 in 10.0 mi South 6.9 mph - N/A   Overcast
11:35 AM 45.5 °F 42.5 °F 23.5 °F 42% 29.39 in 10.0 mi SSW 5.8 mph - N/A   Mostly Cloudy
11:55 AM 46.6 °F - 22.3 °F 38% 29.39 in 10.0 mi SW 5.8 mph - N/A   Scattered Clouds
12:15 PM 47.3 °F - 21.9 °F 37% 29.38 in 10.0 mi SSW 6.9 mph - N/A   Clear
12:35 PM 47.1 °F - 25.2 °F 42% 29.37 in 10.0 mi South 10.4 mph - N/A   Clear
12:55 PM 47.3 °F - 25.5 °F 43% 29.36 in 10.0 mi South 10.4 mph - N/A   Clear
1:15 PM 47.3 °F - 23.7 °F 40% 29.36 in 10.0 mi South 10.4 mph - N/A   Clear
1:35 PM 50.4 °F - 21.0 °F 32% 29.35 in 10.0 mi South 9.2 mph - N/A   Clear
1:55 PM 49.6 °F - 20.7 °F 32% 29.35 in 10.0 mi SSE 6.9 mph - N/A   Clear
2:15 PM 50.0 °F - 21.2 °F 32% 29.34 in 10.0 mi SSE 6.9 mph - N/A   Clear
2:35 PM 49.1 °F - 24.1 °F 38% 29.34 in 10.0 mi SSE 9.2 mph - N/A   Scattered Clouds
2:55 PM 49.5 °F - 23.0 °F 35% 29.34 in 10.0 mi South 10.4 mph - N/A   Mostly Cloudy
3:15 PM 49.1 °F - 23.0 °F 36% 29.34 in 10.0 mi South 5.8 mph - N/A   Overcast
3:35 PM 48.7 °F - 23.0 °F 36% 29.34 in 10.0 mi South 3.5 mph - N/A   Overcast
3:55 PM 48.9 °F - 23.4 °F 37% 29.36 in 10.0 mi Calm Calm - N/A   Overcast
4:15 PM 48.2 °F - 25.7 °F 42% 29.36 in 10.0 mi Calm Calm - N/A   Overcast
4:35 PM 48.2 °F - 26.2 °F 42% 29.36 in 10.0 mi Calm Calm - N/A   Mostly Cloudy
4:55 PM 46.8 °F - 27.0 °F 46% 29.37 in 10.0 mi ENE 4.6 mph - N/A   Mostly Cloudy
5:15 PM 46.4 °F - 25.5 °F 44% 29.37 in 10.0 mi Calm Calm - N/A   Overcast
5:35 PM 44.6 °F 42.2 °F 25.9 °F 48% 29.38 in 10.0 mi North 4.6 mph - N/A   Overcast
5:55 PM 45.7 °F 43.4 °F 24.3 °F 43% 29.39 in 10.0 mi NW 4.6 mph - N/A   Overcast
6:15 PM 46.2 °F 41.7 °F 25.2 °F 44% 29.40 in 10.0 mi NW 9.2 mph - N/A   Overcast
6:35 PM 45.3 °F 41.6 °F 25.2 °F 45% 29.41 in 10.0 mi NNW 6.9 mph - N/A   Overcast
6:55 PM 47.1 °F - 22.6 °F 38% 29.42 in 10.0 mi WNW 15.0 mph 21.9 mph N/A   Overcast
7:15 PM 46.6 °F - 23.5 °F 40% 29.42 in 10.0 mi NW 9.2 mph 23.0 mph N/A   Overcast
7:35 PM 45.3 °F 39.3 °F 24.3 °F 44% 29.43 in 10.0 mi West 12.7 mph - N/A   Overcast
7:55 PM 45.1 °F 39.5 °F 23.0 °F 42% 29.43 in 10.0 mi West 11.5 mph 17.3 mph N/A   Overcast
8:15 PM 44.6 °F 38.8 °F 21.9 °F 41% 29.43 in 10.0 mi West 11.5 mph - N/A   Overcast
8:35 PM 42.8 °F 38.0 °F 22.8 °F 45% 29.43 in 10.0 mi West 8.1 mph - N/A   Mostly Cloudy
8:55 PM 42.3 °F 36.3 °F 21.9 °F 44% 29.43 in 10.0 mi West 10.4 mph - N/A   Scattered Clouds
9:15 PM 41.9 °F 35.4 °F 21.2 °F 44% 29.43 in 10.0 mi West 11.5 mph - N/A   Mostly Cloudy
9:35 PM 41.0 °F 34.7 °F 21.2 °F 45% 29.43 in 10.0 mi West 10.4 mph - N/A   Overcast
9:55 PM 40.6 °F 34.3 °F 20.8 °F 45% 29.45 in 10.0 mi WNW 10.4 mph - N/A   Overcast
10:15 PM 40.1 °F 34.7 °F 21.0 °F 47% 29.46 in 10.0 mi NNW 8.1 mph - N/A   Mostly Cloudy
10:35 PM 40.5 °F 33.2 °F 20.1 °F 44% 29.46 in 10.0 mi West 12.7 mph - N/A   Mostly Cloudy
10:55 PM 41.0 °F 33.5 °F 19.9 °F 43% 29.46 in 10.0 mi West 13.8 mph - N/A   Scattered Clouds
11:15 PM 40.3 °F 32.2 °F 20.3 °F 45% 29.46 in 10.0 mi West 15.0 mph - N/A   Overcast
11:35 PM 39.2 °F 32.5 °F 21.2 °F 49% 29.47 in 10.0 mi West 10.4 mph - N/A   Overcast
11:55 PM 38.8 °F 31.6 °F 21.6 °F 50% 29.48 in 10.0 mi WNW 11.5 mph - N/A   Overcast